星链-2708 (STARLINK-2708 )

导读 | 豆包AI

STARLINK-2708是美国SpaceX公司星链(Starlink)卫星互联网星座的组成卫星,于2021年5月26日发射。它运行在约550公里高度的近地轨道,依托Ku/Ka频段提供宽带互联网接入服务,助力星链实现全球覆盖,为偏远地区、移动场景等提供高速低时延网络连接,是SpaceX构建大规模低轨卫星通信网络的重要节点。

基本信息
目录编号:
48661
目录名称:
STARLINK-2708
国际标识:
2021-044Z
轨道中心:
EARTH
卫星名称:
星链-2708
卫星全名:
星链-2708 (STARLINK-2708 )
卫星状态:
已陨落 最后检测时间 2024-07-21
发射日期:
2021-05-26 UTC
国别 :
美国 (US)
星等 :
--
轨道信息
数据来源 国际轨道数据
星历时间: 2024-07-18T09:27:29+0800
轨道信息已过期604天
半长轴: 6615.937km
偏心率: 0.0002077
轨道倾角: 53.043°
近地点辐角 353.142°
升交点赤经 263.781°
平近点角 103.886°
近地点: 236.427km
远地点: 239.177km
周期: 89.258分钟
每日圈数: 16.133025
详细信息
固有亮度:
5
最大亮度:
2.5
卫星平台:
Starlink V1.0
覆盖范围:
全球
运营商:
太空探索技术公司
运营商所在国:
美国
制造商(研发单位):
太空探索技术公司
制造商所在国:
美国
使用方式:
暂无
卫星简介
星链(Starlink)计划是由太空探索技术公司(SpaceX)提出的一个巨型低轨卫星互联网星座项目,计划在2019年至2024年间在太空搭建由约1.2万颗卫星组成的“星链”网络,其中1584颗将部署在地球上空550千米处的近地轨道,并从2020年开始工作。该卫星仍在工作。